Location: Borovka
(49.7741°N, 14.5280°E)
Time: 17:09:24
(UTC+00:00)

SWARM A - Pass Details

Date: 17 November 2025
Orbit: 425 x 428 km, 87.3° (Epoch: 12 December)

Event Time Altitude Azimuth Distance (km) Brightness Sun altitude
Rises 15:51:25 0° 358° (N) 2,413 7.8 -6.0°
Reaches altitude 10° 15:53:28 10° 359° (N) 1,539 6.8 -6.3°
Maximum altitude 15:56:47 83° 85° (E) 438 4.2 -6.8°
Drops below altitude 10° 16:00:05 10° 176° (S) 1,520 7.2 -7.3°
Sets 16:02:06 0° 178° (S) 2,379 8.2 -7.6°
